Wind_Speed
30 30 30 30 30 31 32 32 32 32 33 33 34 35 35 35 35 35 35 35 35 36 36 37 37 37 38 39 40 41 43 44 45 45 46 47 47 49 49 50 50 50 50
29 30 31 31 32 32 32 32 33 33 33 34 34 34 34 35 35 35 35 36 36 37 37 37 37 38 38 39 40 41 42 43 44 45 46 46 47 48 49 49 49 51 51
29 30 30 31 32 32 33 33 34 34 34 34 34 35 35 35 35 36 36 36 36 37 37 36 36 37 37 38 39 39 40 41 42 43 44 45 46 47 49 50 51 52 52
30 31 31 32 32 32 33 34 33 33 33 33 34 34 34 34 35 35 36 35 36 36 36 37 37 37 37 37 38 39 39 40 40 41 42 43 44 45 46 48 49 50 50
30 31 31 32 32 32 32 32 32 32 33 33 33 34 34 35 35 35 36 36 37 37 37 37 38 38 38 38 39 40 40 41 41 41 42 43 44 45 44 45 46 47 48
28 29 29 29 29 30 31 31 32 33 33 33 34 34 35 35 36 36 36 37 37 37 38 38 38 39 39 40 40 40 41 41 41 41 42 43 44 45 45 45 46 46 48
26 27 28 28 28 29 30 31 32 32 33 34 34 35 36 36 37 37 37 37 38 38 39 39 40 40 41 41 41 41 41 41 41 41 42 42 43 44 44 45 45 45 46
25 26 27 28 29 30 30 31 32 33 34 34 35 36 37 37 37 37 38 39 39 39 40 40 40 41 41 40 40 40 40 40 41 41 41 41 42 42 43 44 44 45 46
24 25 26 27 28 29 30 31 32 33 33 34 35 36 36 37 37 38 39 40 40 40 40 40 40 40 40 40 40 39 40 40 40 41 41 42 42 43 44 44 44 45 46
24 26 27 27 28 29 30 31 32 33 34 34 35 36 36 37 38 38 39 40 41 41 41 40 41 41 40 40 39 40 40 40 41 41 42 43 43 44 44 45 46 46 47
23 25 26 27 28 29 30 31 31 32 33 34 35 36 37 37 38 39 40 41 41 41 41 41 40 40 40 40 40 40 41 41 42 42 43 44 44 45 46 46 46 47 47
23 24 25 26 28 29 30 31 31 32 33 33 34 35 36 37 38 39 40 40 40 40 40 40 40 39 40 41 41 42 42 42 43 44 44 44 44 44 45 46 46 47 47
23 24 26 27 28 29 30 31 32 33 33 34 35 35 36 37 38 39 39 39 39 39 39 39 40 40 41 42 43 43 43 43 43 44 44 44 44 44 45 46 47 47 48
24 25 27 28 29 30 31 32 33 33 34 35 35 36 36 37 37 38 38 38 39 39 39 40 41 41 42 42 42 43 42 43 43 43 44 44 45 45 46 46 47 48 49
26 27 28 29 30 31 32 33 33 34 34 34 35 35 36 36 37 37 38 38 38 39 40 40 40 40 41 42 42 42 43 43 43 44 44 44 45 45 46 46 47 48 49
28 28 29 30 31 32 32 33 34 34 34 35 35 36 36 37 37 37 38 38 39 39 39 40 40 41 41 41 42 42 43 42 43 43 43 44 44 45 46 46 47 47 48
30 31 32 32 33 33 33 34 35 35 35 36 36 36 37 37 37 37 38 38 38 39 39 39 39 40 40 41 41 42 42 42 42 43 43 44 44 44 45 45 46 47 47
33 34 34 34 35 35 35 36 36 37 37 37 37 37 37 37 38 38 38 38 38 39 39 38 39 39 40 41 41 41 41 42 42 43 43 43 43 43 43 43 43 44 45
36 36 36 37 37 37 37 37 37 37 37 38 38 38 38 37 38 38 38 38 38 38 38 39 39 39 40 40 40 41 41 42 42 43 43 43 43 43 43 42 42 43 44
38 38 38 38 38 39 38 38 38 38 38 38 38 39 39 39 39 39 39 38 39 39 39 39 39 40 40 40 40 40 41 41 42 42 43 43 43 43 43 42 43 43 44
40 40 40 40 39 39 39 39 39 39 39 39 39 39 40 40 39 39 39 39 39 39 39 39 40 40 40 40 41 40 40 41 41 42 42 43 43 43 43 43 43 44 45
41 41 41 41 41 41 40 40 40 41 41 41 41 41 41 40 40 39 39 39 39 39 39 39 39 40 40 40 40 40 41 41 41 42 42 43 43 43 43 43 43 44 44
41 41 41 41 41 42 42 42 42 43 43 43 42 41 41 41 40 40 40 40 40 40 40 40 40 40 40 40 40 41 41 41 42 42 43 43 43 43 43 43 43 43 43
42 42 42 42 42 43 43 43 43 43 43 42 41 41 41 41 41 41 40 40 40 40 40 40 40 40 40 40 41 41 41 41 42 42 43 43 43 43 43 43 43 43 42
43 43 43 43 43 43 43 43 43 42 41 41 40 41 41 41 41 41 41 41 41 41 41 41 41 40 40 40 41 41 42 42 43 43 43 43 43 43 43 43 43 42 42
44 44 44 43 43 43 43 43 43 42 41 41 40 40 41 41 41 41 41 41 41 41 41 41 40 40 40 41 41 41 42 42 43 43 43 43 43 43 42 42 42 41 40
Wind_Direction
255 258 260 262 264 266 268 271 273 275 276 277 278 279 281 282 283 283 283 282 282 283 283 283 282 283 282 281 280 279 278 275 273 273 272 271 270 268 268 266 265 265 265
256 259 261 264 267 268 270 272 274 275 276 276 278 279 281 282 283 284 284 283 283 284 285 285 284 283 283 283 283 282 280 278 276 275 275 273 270 269 268 267 265 265 265
259 261 264 266 268 269 271 274 275 276 276 277 278 279 281 282 283 284 285 285 286 286 286 285 285 286 285 285 285 285 284 281 279 277 276 274 271 269 269 268 267 266 266
261 262 264 266 269 271 273 275 275 276 278 279 280 281 281 283 284 285 286 285 285 286 285 285 286 286 287 286 286 286 285 284 282 280 278 277 274 271 270 269 268 267 267
263 265 266 267 268 270 273 274 275 277 279 280 282 282 283 284 284 285 286 286 286 286 286 286 287 286 287 288 287 286 285 284 283 281 279 278 276 273 272 271 270 269 268
265 265 266 268 270 271 273 275 276 278 280 281 282 283 284 284 285 285 285 286 286 286 287 287 287 287 288 289 288 288 287 286 284 282 280 279 277 273 271 272 272 270 269
267 267 269 270 271 273 275 276 278 280 281 282 283 284 285 285 286 286 285 286 287 287 288 288 287 288 289 289 289 289 288 287 285 284 282 281 278 276 273 272 272 271 269
269 270 272 272 273 274 276 277 279 281 282 283 284 285 285 285 285 285 285 286 287 288 288 288 288 289 290 290 290 289 288 288 286 285 284 282 281 277 274 274 273 271 269
273 274 275 275 276 277 278 279 280 281 283 283 285 285 285 285 286 286 287 287 288 288 288 288 289 289 290 290 291 290 289 288 288 286 285 284 282 280 276 276 275 273 271
276 277 277 278 278 279 279 280 281 282 283 284 285 285 285 286 286 287 287 287 288 288 288 288 289 289 290 290 291 291 291 290 289 288 286 285 283 281 278 276 276 275 272
281 281 281 281 281 281 281 282 282 283 284 285 286 286 287 287 287 288 288 288 288 288 288 288 288 289 290 291 291 291 291 290 290 289 288 286 284 282 279 277 276 276 273
284 284 284 284 284 284 284 284 284 285 285 287 288 288 289 289 288 289 288 288 289 288 288 288 288 289 290 291 292 292 292 291 290 290 289 288 286 283 281 279 278 277 275
286 285 285 284 284 284 284 285 285 285 286 288 289 290 290 291 290 290 289 289 289 289 288 288 289 289 290 291 292 293 293 292 291 290 290 289 287 285 283 281 279 277 276
288 286 286 286 286 286 286 287 287 287 288 288 289 290 291 292 291 290 290 289 289 289 289 290 290 290 291 293 294 294 294 294 293 292 291 289 288 287 285 283 281 279 277
289 289 288 288 288 288 288 289 289 289 290 291 291 292 293 293 293 292 292 291 290 290 290 291 292 292 293 294 295 294 294 294 294 294 292 291 290 289 287 285 283 282 280
290 291 290 290 291 291 291 291 291 291 292 292 293 293 294 293 293 293 292 291 291 291 291 291 292 293 294 295 295 295 295 294 295 295 294 293 292 291 290 288 286 284 282
290 291 291 290 291 291 292 292 292 292 293 292 292 293 293 293 292 292 292 292 292 292 292 292 293 294 295 296 296 296 296 296 296 296 295 295 294 293 292 290 288 286 284
290 290 290 290 291 291 292 292 292 293 293 293 292 293 293 293 292 292 292 292 292 292 292 292 293 294 295 295 296 296 296 296 297 296 296 296 296 294 293 293 291 289 288
291 290 290 291 291 291 292 292 292 292 292 292 292 292 293 293 293 293 293 292 291 292 292 292 293 294 295 295 296 297 297 297 298 297 297 297 297 296 294 293 292 291 290
291 291 291 292 291 291 291 291 291 291 291 291 291 291 292 293 293 292 292 292 292 292 292 292 293 294 295 295 297 298 297 298 298 298 298 298 298 297 296 295 293 292 292
292 291 291 291 291 291 290 290 290 290 290 291 291 291 292 292 293 292 292 292 292 293 293 293 294 294 295 296 297 297 298 298 298 299 299 299 299 298 297 297 296 295 294
292 292 291 290 290 289 289 289 289 289 290 290 291 291 291 291 292 292 292 292 293 293 294 294 294 294 295 296 296 297 297 298 298 299 300 300 300 299 298 298 298 297 296
291 291 291 290 289 289 289 290 290 290 290 290 290 290 290 291 292 292 292 292 293 293 293 293 294 295 295 295 296 297 298 297 297 298 299 299 299 299 299 299 299 299 297
290 290 290 290 290 290 289 290 290 290 290 290 290 290 290 291 292 292 292 292 292 293 293 293 294 295 295 296 297 297 297 297 298 298 299 300 300 300 299 299 300 300 298
290 289 289 289 290 290 289 290 290 289 289 289 289 289 290 290 290 291 291 291 291 292 292 293 293 294 295 297 297 298 297 297 298 298 299 300 300 300 300 300 300 300 299
289 288 288 288 289 289 289 289 289 288 289 289 289 289 290 290 290 290 291 291 291 291 292 293 293 293 295 296 297 297 298 298 298 298 299 299 300 300 300 300 300 300 299
Height
5775 5776 5776 5777 5777 5777 5776 5776 5775 5774 5773 5772 5770 5769 5767 5765 5764 5762 5760 5758 5756 5754 5752 5750 5748 5746 5744 5742 5740 5738 5737 5736 5735 5734 5734 5733 5732 5732 5731 5731 5732 5732 5733
5769 5769 5769 5770 5770 5770 5769 5769 5768 5767 5766 5764 5763 5761 5760 5758 5756 5754 5752 5750 5748 5746 5744 5742 5740 5737 5735 5733 5731 5729 5727 5725 5724 5723 5722 5722 5721 5720 5719 5719 5719 5719 5720
5762 5763 5763 5763 5763 5763 5763 5762 5761 5760 5758 5757 5755 5754 5752 5750 5748 5746 5744 5741 5739 5737 5735 5733 5731 5729 5726 5724 5721 5719 5717 5715 5713 5711 5710 5710 5710 5709 5708 5707 5706 5706 5706
5756 5756 5757 5756 5756 5756 5755 5754 5753 5752 5751 5749 5748 5746 5744 5742 5740 5738 5736 5734 5731 5729 5727 5724 5722 5720 5717 5715 5712 5709 5707 5705 5703 5701 5699 5698 5697 5697 5697 5696 5694 5693 5693
5749 5749 5750 5750 5749 5748 5748 5747 5746 5745 5743 5742 5740 5738 5737 5735 5732 5730 5728 5725 5723 5720 5718 5716 5713 5711 5708 5705 5702 5700 5697 5695 5693 5691 5689 5687 5685 5684 5684 5684 5683 5682 5681
5743 5743 5743 5742 5742 5741 5741 5740 5738 5737 5735 5734 5732 5730 5729 5726 5724 5722 5719 5717 5714 5712 5709 5706 5704 5701 5698 5695 5692 5689 5687 5684 5682 5679 5677 5675 5674 5672 5672 5672 5671 5670 5669
5737 5736 5736 5736 5735 5734 5733 5732 5731 5729 5728 5726 5724 5722 5720 5718 5716 5713 5711 5708 5705 5703 5700 5697 5694 5691 5688 5685 5682 5679 5676 5673 5671 5668 5666 5664 5661 5660 5660 5659 5658 5657 5657
5730 5730 5729 5729 5728 5727 5726 5724 5723 5722 5720 5718 5716 5714 5712 5709 5707 5704 5702 5699 5696 5693 5690 5687 5684 5681 5678 5675 5671 5668 5665 5662 5659 5657 5654 5652 5649 5648 5647 5647 5646 5645 5645
5724 5723 5722 5721 5721 5719 5718 5717 5715 5713 5711 5709 5707 5705 5703 5700 5698 5695 5692 5690 5687 5684 5681 5678 5675 5671 5668 5665 5661 5658 5655 5651 5648 5646 5643 5640 5638 5636 5635 5633 5632 5632 5631
5718 5717 5716 5714 5713 5712 5710 5709 5707 5705 5703 5701 5698 5696 5694 5691 5688 5686 5683 5680 5677 5674 5671 5667 5664 5661 5658 5654 5651 5648 5644 5641 5637 5634 5631 5628 5626 5624 5622 5620 5619 5618 5617
5711 5710 5708 5707 5705 5704 5702 5700 5698 5696 5694 5692 5690 5687 5684 5682 5679 5676 5673 5670 5667 5663 5660 5657 5654 5651 5647 5644 5640 5637 5633 5629 5626 5622 5619 5616 5614 5611 5609 5607 5605 5604 5603
5705 5703 5702 5700 5698 5696 5694 5692 5690 5688 5686 5683 5681 5678 5675 5672 5669 5666 5662 5659 5656 5653 5650 5646 5643 5640 5637 5633 5630 5626 5622 5618 5614 5611 5607 5604 5601 5598 5596 5594 5592 5590 5588
5698 5696 5694 5692 5690 5688 5686 5684 5681 5679 5677 5674 5672 5669 5666 5662 5659 5655 5652 5649 5645 5642 5639 5636 5633 5630 5626 5622 5619 5615 5611 5606 5602 5599 5595 5592 5589 5586 5583 5581 5578 5576 5575
5691 5689 5687 5685 5682 5680 5678 5675 5673 5670 5668 5665 5662 5659 5656 5652 5649 5645 5641 5638 5635 5632 5629 5625 5622 5619 5615 5611 5607 5603 5599 5595 5591 5587 5583 5579 5576 5572 5569 5567 5564 5562 5560
5685 5682 5680 5677 5675 5672 5669 5667 5664 5661 5659 5656 5653 5649 5646 5642 5638 5635 5631 5628 5624 5621 5618 5615 5611 5607 5604 5600 5596 5592 5588 5583 5579 5575 5571 5567 5563 5559 5556 5553 5550 5548 5546
5678 5675 5673 5670 5667 5664 5661 5658 5655 5652 5649 5646 5643 5639 5636 5632 5629 5625 5621 5618 5614 5611 5607 5604 5600 5597 5593 5589 5585 5581 5576 5572 5568 5563 5559 5555 5551 5547 5543 5539 5536 5533 5531
5670 5667 5665 5662 5658 5655 5652 5649 5646 5643 5639 5636 5633 5629 5626 5622 5619 5615 5611 5607 5604 5600 5597 5593 5589 5586 5582 5578 5574 5569 5565 5561 5556 5552 5547 5543 5538 5534 5530 5526 5522 5519 5516
5662 5659 5655 5652 5649 5646 5643 5640 5636 5633 5630 5626 5622 5619 5615 5612 5608 5604 5601 5597 5593 5589 5586 5582 5579 5575 5571 5567 5563 5558 5554 5549 5545 5540 5536 5531 5526 5522 5518 5513 5509 5505 5502
5652 5649 5646 5642 5639 5636 5633 5630 5626 5623 5619 5616 5612 5608 5605 5601 5598 5594 5590 5586 5583 5579 5575 5572 5568 5564 5560 5556 5551 5547 5543 5538 5533 5529 5524 5519 5515 5510 5506 5502 5497 5493 5489
5642 5639 5635 5632 5629 5625 5622 5619 5616 5612 5609 5605 5601 5598 5594 5591 5587 5583 5580 5576 5572 5568 5564 5561 5557 5553 5549 5545 5540 5536 5531 5527 5522 5517 5513 5508 5503 5498 5493 5489 5485 5481 5477
5631 5627 5624 5621 5618 5614 5611 5608 5605 5601 5598 5594 5591 5587 5583 5580 5576 5572 5569 5565 5561 5557 5554 5550 5546 5542 5538 5534 5529 5525 5520 5516 5511 5506 5501 5496 5491 5486 5481 5476 5472 5468 5463
5620 5616 5613 5610 5606 5603 5600 5597 5593 5590 5586 5583 5579 5576 5572 5568 5565 5561 5558 5554 5550 5546 5542 5538 5535 5531 5527 5522 5518 5513 5509 5504 5500 5495 5490 5484 5479 5474 5469 5464 5460 5455 5450
5608 5604 5601 5598 5594 5591 5587 5585 5581 5578 5574 5571 5568 5564 5561 5557 5554 5550 5546 5542 5539 5535 5531 5527 5523 5519 5515 5511 5507 5502 5497 5493 5488 5483 5478 5473 5468 5462 5457 5452 5447 5442 5437
5596 5592 5589 5586 5582 5578 5575 5572 5569 5565 5562 5559 5555 5552 5549 5545 5542 5538 5535 5531 5527 5523 5519 5516 5512 5508 5504 5499 5495 5490 5486 5481 5476 5472 5467 5461 5456 5450 5445 5440 5435 5430 5425
5583 5579 5576 5573 5570 5566 5562 5559 5556 5553 5550 5546 5543 5540 5537 5533 5530 5527 5523 5519 5515 5511 5508 5504 5500 5496 5492 5488 5483 5479 5474 5469 5465 5460 5455 5449 5444 5439 5433 5428 5422 5417 5412
5570 5566 5563 5560 5556 5553 5550 5546 5543 5540 5537 5534 5531 5528 5525 5521 5518 5514 5511 5507 5504 5500 5496 5492 5488 5484 5481 5476 5472 5467 5462 5457 5453 5448 5443 5438 5432 5427 5421 5416 5411 5405 5400